• In Deutschland
  • Länderverzeichnis
  • Für 7 Tage
  • Wassertemperatur
  • Satellitenkarten
  • Wetterkarte
  • Widgets
  • user-avatar
    Anmelden

    Stündliche Wetter Starnberg

    Heute, 18 Oktober, Mittwoch

    Zeit Temperatur Niederschläge Wind Luftdruck Luftfeuchtigkeit
    00:00 +12°C° 0 mm 1 m/S 712 mmHg 77%
    01:00 +12°C° 0 mm 1 m/S 712 mmHg 74%
    02:00 +11°C° 0 mm 1 m/S 712 mmHg 74%
    03:00 +11°C° 0 mm 1 m/S 712 mmHg 73%
    04:00 +11°C° 0 mm 1 m/S 711 mmHg 73%
    05:00 +11°C° 0 mm 1 m/S 711 mmHg 72%
    06:00 +10°C° 0 mm 1 m/S 711 mmHg 71%
    07:00 +10°C° 0 mm 1 m/S 711 mmHg 69%
    08:00 +12°C° 0 mm 1 m/S 711 mmHg 64%
    09:00 +14°C° 0 mm 1 m/S 711 mmHg 59%
    10:00 +18°C° 0 mm 1 m/S 711 mmHg 54%
    11:00 +19°C° 0 mm 1 m/S 711 mmHg 53%
    12:00 +20°C° 0 mm 1 m/S 711 mmHg 51%
    13:00 +21°C° 0 mm 1 m/S 711 mmHg 51%
    14:00 +20°C° 0 mm 1 m/S 710 mmHg 56%
    15:00 +20°C° 0 mm 1 m/S 710 mmHg 61%
    16:00 +19°C° 0 mm 1 m/S 710 mmHg 66%
    17:00 +16°C° 0 mm 1 m/S 710 mmHg 72%
    18:00 +13°C° 0 mm 0 m/S 710 mmHg 78%
    19:00 +11°C° 0 mm 0 m/S 710 mmHg 85%
    20:00 +12°C° 0 mm 1 m/S 710 mmHg 84%
    21:00 +11°C° 0 mm 1 m/S 710 mmHg 84%
    22:00 +11°C° 0 mm 1 m/S 710 mmHg 84%
    23:00 +11°C° 0 mm 1 m/S 710 mmHg 82%

    Morgen, 19 Oktober, Donnerstag

    Zeit Temperatur Niederschläge Wind Luftdruck Luftfeuchtigkeit
    00:00 +10°C° 0 mm 1 m/S 710 mmHg 81%
    01:00 +10°C° 0 mm 1 m/S 710 mmHg 79%
    02:00 +10°C° 0 mm 1 m/S 710 mmHg 77%
    03:00 +9°C° 0 mm 1 m/S 710 mmHg 76%
    04:00 +9°C° 0 mm 1 m/S 710 mmHg 74%
    05:00 +9°C° 0 mm 1 m/S 710 mmHg 72%
    06:00 +9°C° 0 mm 1 m/S 710 mmHg 71%
    07:00 +9°C° 0 mm 1 m/S 710 mmHg 69%
    08:00 +11°C° 0 mm 1 m/S 710 mmHg 64%
    09:00 +14°C° 0 mm 1 m/S 710 mmHg 58%
    10:00 +16°C° 0 mm 0 m/S 710 mmHg 52%
    11:00 +19°C° 0 mm 1 m/S 710 mmHg 51%
    12:00 +20°C° 0 mm 1 m/S 710 mmHg 49%
    13:00 +21°C° 0 mm 1 m/S 710 mmHg 47%
    14:00 +20°C° 0 mm 1 m/S 710 mmHg 54%
    15:00 +19°C° 0 mm 1 m/S 709 mmHg 60%
    16:00 +19°C° 0 mm 1 m/S 709 mmHg 66%
    17:00 +16°C° 0 mm 1 m/S 709 mmHg 72%
    18:00 +14°C° 0 mm 1 m/S 709 mmHg 77%
    19:00 +12°C° 0 mm 1 m/S 709 mmHg 83%
    20:00 +11°C° 0 mm 1 m/S 709 mmHg 81%
    21:00 +11°C° 0 mm 1 m/S 709 mmHg 80%
    22:00 +10°C° 0 mm 1 m/S 709 mmHg 79%
    23:00 +10°C° 0 mm 1 m/S 709 mmHg 77%

    übermorgen, 20 Oktober, Freitag

    Zeit Temperatur Niederschläge Wind Luftdruck Luftfeuchtigkeit
    00:00 +9°C° 0 mm 1 m/S 709 mmHg 75%
    01:00 +9°C° 0 mm 1 m/S 709 mmHg 74%
    02:00 +9°C° 0 mm 1 m/S 709 mmHg 73%
    03:00 +9°C° 0 mm 1 m/S 709 mmHg 73%
    04:00 +8°C° 0 mm 1 m/S 709 mmHg 72%
    05:00 +8°C° 0 mm 1 m/S 710 mmHg 73%
    06:00 +8°C° 0 mm 1 m/S 710 mmHg 74%
    07:00 +8°C° 0 mm 1 m/S 710 mmHg 75%
    08:00 +11°C° 0 mm 1 m/S 710 mmHg 69%
    09:00 +13°C° 0 mm 1 m/S 711 mmHg 63%
    10:00 +16°C° 0 mm 1 m/S 711 mmHg 57%
    11:00 +18°C° 0 mm 1 m/S 711 mmHg 56%
    12:00 +18°C° 0 mm 2 m/S 711 mmHg 55%
    13:00 +19°C° 0 mm 2 m/S 711 mmHg 53%
    14:00 +19°C° 0 mm 2 m/S 711 mmHg 59%
    15:00 +19°C° 0 mm 1 m/S 711 mmHg 64%
    16:00 +18°C° 0 mm 1 m/S 711 mmHg 70%
    17:00 +16°C° 0 mm 1 m/S 712 mmHg 75%
    18:00 +14°C° 0 mm 1 m/S 712 mmHg 79%
    19:00 +13°C° 0 mm 1 m/S 712 mmHg 84%
    20:00 +12°C° 0 mm 1 m/S 712 mmHg 84%
    21:00 +12°C° 0 mm 1 m/S 712 mmHg 85%
    22:00 +12°C° 0 mm 2 m/S 713 mmHg 85%
    23:00 +10°C° 0 mm 2 m/S 713 mmHg 85%

    21 Oktober, Samstag

    Zeit Temperatur Niederschläge Wind Luftdruck Luftfeuchtigkeit
    00:00 +10°C° 0 mm 2 m/S 712 mmHg 85%
    01:00 +11°C° 0 mm 1 m/S 712 mmHg 84%
    02:00 +11°C° 0 mm 1 m/S 712 mmHg 83%
    03:00 +11°C° 0 mm 1 m/S 712 mmHg 82%
    04:00 +11°C° 0 mm 1 m/S 712 mmHg 81%
    05:00 +10°C° 0 mm 2 m/S 712 mmHg 78%
    06:00 +10°C° 0 mm 2 m/S 712 mmHg 76%
    07:00 +10°C° 0 mm 2 m/S 712 mmHg 74%
    08:00 +13°C° 0 mm 2 m/S 712 mmHg 70%
    09:00 +15°C° 0 mm 2 m/S 713 mmHg 66%
    10:00 +18°C° 0 mm 1 m/S 713 mmHg 62%
    11:00 +19°C° 0 mm 1 m/S 712 mmHg 59%
    12:00 +20°C° 0 mm 1 m/S 712 mmHg 56%
    13:00 +21°C° 0 mm 1 m/S 712 mmHg 53%
    14:00 +20°C° 0 mm 1 m/S 711 mmHg 57%
    15:00 +20°C° 0 mm 1 m/S 711 mmHg 62%
    16:00 +19°C° 0 mm 1 m/S 711 mmHg 66%
    17:00 +18°C° 0 mm 1 m/S 711 mmHg 71%
    18:00 +15°C° 0 mm 1 m/S 711 mmHg 75%
    19:00 +13°C° 0 mm 1 m/S 711 mmHg 80%
    20:00 +13°C° 0,1 mm 2 m/S 711 mmHg 83%
    21:00 +12°C° 0,1 mm 2 m/S 712 mmHg 86%
    22:00 +11°C° 0,1 mm 3 m/S 712 mmHg 90%
    23:00 +11°C° 0,6 mm 3 m/S 712 mmHg 91%

    22 Oktober, Sonntag

    Zeit Temperatur Niederschläge Wind Luftdruck Luftfeuchtigkeit
    00:00 +10°C° 0,6 mm 3 m/S 712 mmHg 92%
    01:00 +10°C° 0,6 mm 3 m/S 712 mmHg 93%
    02:00 +9°C° 0,6 mm 3 m/S 712 mmHg 93%
    03:00 +9°C° 0,6 mm 3 m/S 712 mmHg 94%
    04:00 +8°C° 0,6 mm 2 m/S 712 mmHg 94%
    05:00 +8°C° 1,1 mm 2 m/S 712 mmHg 94%
    06:00 +8°C° 1,1 mm 2 m/S 712 mmHg 94%
    07:00 +8°C° 1,1 mm 2 m/S 712 mmHg 95%
    08:00 +8°C° 1,1 mm 2 m/S 712 mmHg 93%
    09:00 +8°C° 1,1 mm 3 m/S 712 mmHg 91%
    10:00 +8°C° 1,1 mm 3 m/S 712 mmHg 90%
    11:00 +8°C° 0,5 mm 3 m/S 712 mmHg 88%
    12:00 +8°C° 0,5 mm 3 m/S 712 mmHg 86%
    13:00 +8°C° 0,5 mm 3 m/S 712 mmHg 84%
    14:00 +8°C° 0,3 mm 3 m/S 712 mmHg 85%
    15:00 +7°C° 0,3 mm 3 m/S 712 mmHg 86%
    16:00 +7°C° 0,3 mm 2 m/S 712 mmHg 87%
    17:00 +7°C° 0,3 mm 2 m/S 712 mmHg 88%
    18:00 +5°C° 0,3 mm 3 m/S 712 mmHg 89%
    19:00 +5°C° 0,3 mm 3 m/S 713 mmHg 90%
    20:00 +4°C° 0,1 mm 3 m/S 713 mmHg 90%
    21:00 +4°C° 0,1 mm 3 m/S 713 mmHg 91%
    22:00 +4°C° 0,1 mm 3 m/S 713 mmHg 91%
    23:00 +4°C° 0,1 mm 3 m/S 713 mmHg 92%

    23 Oktober, Montag

    Zeit Temperatur Niederschläge Wind Luftdruck Luftfeuchtigkeit
    00:00 +4°C° 0,1 mm 3 m/S 713 mmHg 92%
    01:00 +4°C° 0,1 mm 3 m/S 713 mmHg 93%
    02:00 +4°C° 0,2 mm 4 m/S 713 mmHg 92%
    03:00 +4°C° 0,2 mm 4 m/S 713 mmHg 92%
    04:00 +4°C° 0,2 mm 4 m/S 713 mmHg 92%
    05:00 +4°C° 0,3 mm 4 m/S 713 mmHg 92%
    06:00 +4°C° 0,3 mm 4 m/S 713 mmHg 92%
    07:00 +4°C° 0,3 mm 4 m/S 714 mmHg 92%
    08:00 +5°C° 0,5 mm 4 m/S 714 mmHg 91%
    09:00 +5°C° 0,5 mm 4 m/S 714 mmHg 91%
    10:00 +5°C° 0,5 mm 4 m/S 715 mmHg 91%
    11:00 +6°C° 0,5 mm 4 m/S 715 mmHg 90%
    12:00 +6°C° 0,5 mm 4 m/S 715 mmHg 90%
    13:00 +6°C° 0,5 mm 4 m/S 715 mmHg 90%
    14:00 +6°C° 0,2 mm 4 m/S 715 mmHg 89%
    15:00 +7°C° 0,2 mm 3 m/S 715 mmHg 89%
    16:00 +8°C° 0,2 mm 3 m/S 715 mmHg 89%
    17:00 +7°C° 0,1 mm 3 m/S 716 mmHg 90%
    18:00 +7°C° 0,1 mm 3 m/S 716 mmHg 91%
    19:00 +7°C° 0,1 mm 2 m/S 717 mmHg 92%
    20:00 +7°C° 0,2 mm 2 m/S 717 mmHg 92%
    21:00 +6°C° 0,2 mm 2 m/S 717 mmHg 92%
    22:00 +6°C° 0,2 mm 2 m/S 717 mmHg 92%
    23:00 +6°C° 0,1 mm 2 m/S 717 mmHg 92%
    Mehr zeigen